User: anonymous   Login
Location: Unspecified
(0.0000°N, 0.0000°E)
Time: 17:25:18
(UTC+00:00)
Language:

Tiros N - Orbit

View from above orbital plane
View from above orbital plane
View from above satellite
View from above satellite

Ground track
Ground track

The orbit data is extracted from the following two-line orbital elements,

1 11060U 78096A   17295.75274541  .00000022  00000-0  32445-4 0  9993
2 11060  98.8794 345.9159 0010163 342.2688  17.8131 14.18172358231068
Epoch (UTC): 22 October 2017 18:03:57
Eccentricity: 0.0010163
inclination: 98.8794°
perigee height: 824 km
apogee height: 839 km
right ascension of ascending node: 345.9159°
argument of perigee: 342.2688°
revolutions per day: 14.18172358
mean anomaly at epoch: 17.8131°
orbit number at epoch: 23106

The dashed part of the orbit path shows where the satellite is in the earth's shadow,  

DLR